Tracking 19827 objects as of 21-Aug-2019
HD Live streaming from Space Station
objects crossing your sky now

HELIOS-2A

Track HELIOS-2A now!
10-day predictions
HELIOS-2A is classified as:


NORAD ID: 28492
Int'l Code: 2004-049A
Perigee: 687.7 km
Apogee: 688.4 km
Inclination: 98.1 °
Period: 98.4 minutes
Semi major axis: 7059 km
RCS: Unknown
Launch date: December 18, 2004
Source: France (FR)
Launch site: FRENCH GUIANA (FRGUI)

Optical reconnaissance; independent military intelligence capability for the EU.
aabbcc
Your satellite tracking list
Your tracking list is empty




NASA's NSSDC Master Catalog

Two Line Element Set (TLE):
1 28492U 04049A   19223.03828085 0.00000000  00000-0  00000-0 0    06
2 28492  98.1431 158.4314 0000500 307.2481  52.7518 14.63811430    08
Source of the keplerian elements: McCants